Regional Weather Roundup
Issued by NWS

Home | Current Version | Previous Version | Graphics & Text | Print | Product List | Glossary On
Versions: 1 2 3 4 5 6 7 8 9 10 11 12 13 14 15 16 17 18 19 20 21 22 23 24 25 26 27 28 29 30 31 32 33 34 35 36 37 38 39 40 41 42 43 44 45 46 47 48 49 50
718
ASUS43 KBIS 280110
RWRND

NORTH DAKOTA REGIONAL WEATHER ROUNDUP
NATIONAL WEATHER SERVICE BISMARCK ND
800 PM CDT THU APR 27 2017

NOTE: "FAIR" INDICATES FEW OR NO CLOUDS BELOW 12,000 FEET WITH NO
SIGNIFICANT WEATHER AND/OR OBSTRUCTIONS TO VISIBILITY.


NDZ001>003-009>011-017-280200-
NORTHWEST NORTH DAKOTA

CITY           SKY/WX    TMP DP  RH WIND       PRES   REMARKS
WILLISTON      FAIR      51  16  24 E8        29.77R
MINOT          FAIR      50  22  33 N12       29.76R
MINOT AFB      CLEAR     49  22  34 NE13      29.76R
$$

NDZ018>021-031>035-040>046-280200-
SOUTHWEST NORTH DAKOTA

CITY           SKY/WX    TMP DP  RH WIND       PRES   REMARKS
BISMARCK       FAIR      50  24  36 NE9       29.75R
DICKINSON      FAIR      47  19  33 NE12      29.71R
GARRISON         N/A     48  19  31 NE7       29.75R
HETTINGER ARPT CLEAR     48  25  40 E10       29.72R
$$

NDZ004>008-012>016-024-026-027-054-280200-
NORTHEAST NORTH DAKOTA

CITY           SKY/WX    TMP DP  RH WIND       PRES   REMARKS
GRAND FORKS    PTCLDY    39  31  72 E6        29.71R
GRND FRKS AFB  MOCLDY    40  31  70 NE6       29.72R
DEVILS LAKE    CLOUDY    43  27  53 N16       29.76R
$$

NDZ022-023-025-028>030-036>039-047>053-280200-
SOUTHEAST NORTH DAKOTA

CITY           SKY/WX    TMP DP  RH WIND       PRES   REMARKS
FARGO          CLOUDY    40  30  67 NE5       29.71R
JAMESTOWN      MOCLDY    45  30  55 N13       29.72R
$$





USA.gov is the U.S. government's official web portal to all federal, state and local government web resources and services.